(12) Victoria
ephemeris date magn radius delta ra dec elong phase
Today21 Nov 202411.61.891 AU2.798 AU17h06m-19°52'18.9°9.7°
Opposition5 Nov 20259.92.291 AU1.301 AU02h38m+18°46'176.8°1.4°
(12) Victoria - 2024-11-21
astro.vanbuitenen.nl


 
-1 year
-1 month
-1 day
Now
+1 day
+1 month
+1 year

The interactive orbit chart above shows the body's path through the solar system and its position at the given date. Green and blue lines are shown perpendicular to the ecliptic plane: Green if the path is above the ecliptic plane, blue if it is below. (Left-click and drag to rotate the view; Right-click and drag to move the view; Use scroll wheel to zoom in our out.)

The orbital elements of Victoria are:

            e (Eccentricity)                : 0.2201342
            a (Semimajor axis)              : 2.3342499
            i (Inclination)                 : 8.37413
            Ω (Longitude of ascending node) : 235.35546
            ω (Argument of perihelion)      : 69.54742
            M (Mean anomaly)                : 326.36347
            Epoch                           : 2024 Oct 17

            L (Longitude of perihelion)     : 304.70099
            B (Latitude of perihelion)      : 7.84280
            P (Orbital period in years)     : 3.57            
        

The light curve chart below shows the estimated development of the minor planet's magnitude.


The all-sky chart below shows the path of the minor planet over the same period as the light curve. The current position is marked yellow.





The following chart shows the path of the minor planet in the next few days. The field of view is optimized for (~10x50) binoculars and finderscopes. A more printer-friendly version of the same chart can be found below.




Ephemerides:
Date       Time       RA (2000)    DEC (2000)    delta   radius  elong  phase   PA    magn
2024-11-21 00:00 UT   17 06 50.9   -19 52 02     2.798    1.891   18.9    9.7    86   11.6 
2024-11-21 12:44 UT   17 08 12.8   -19 52 49     2.799    1.890   18.7    9.6    86   11.5 
2024-11-22 00:00 UT   17 09 25.4   -19 53 29     2.800    1.889   18.5    9.6    86   11.5 
2024-11-23 00:00 UT   17 12 00.3   -19 54 47     2.801    1.888   18.1    9.4    85   11.5 
2024-11-24 00:00 UT   17 14 35.5   -19 55 55     2.802    1.886   17.7    9.2    85   11.5 
2024-11-25 00:00 UT   17 17 11.0   -19 56 55     2.804    1.885   17.3    9.0    84   11.5 
2024-11-26 00:00 UT   17 19 46.7   -19 57 46     2.805    1.883   17.0    8.8    84   11.5 
2024-11-27 00:00 UT   17 22 22.8   -19 58 28     2.806    1.882   16.6    8.6    83   11.5 
2024-11-28 00:00 UT   17 24 59.1   -19 59 00     2.808    1.880   16.2    8.4    82   11.5 
2024-11-29 00:00 UT   17 27 35.7   -19 59 24     2.809    1.879   15.8    8.2    82   11.5 
2024-11-30 00:00 UT   17 30 12.5   -19 59 37     2.810    1.877   15.4    8.0    81   11.5 
2024-12-01 00:00 UT   17 32 49.6   -19 59 42     2.811    1.876   15.0    7.8    80   11.5 
2024-12-02 00:00 UT   17 35 27.0   -19 59 36     2.812    1.875   14.6    7.6    80   11.5 
2024-12-03 00:00 UT   17 38 04.5   -19 59 22     2.813    1.873   14.3    7.5    79   11.4 
2024-12-04 00:00 UT   17 40 42.3   -19 58 57     2.814    1.872   13.9    7.3    78   11.4 


    Terminology:
            
    delta:  distance between minor planet and earth in AU
    radius: distance between minor planet and sun in AU
    magn:   magnitude (brightness) estimate    
    ra:     right ascension in hours (24h = 360deg)
    dec:    declination in degrees
    elong:  elongation in degrees (angle sun-earth-minor planet)    
    phase:  phase angle in degrees (angle sun-minor planet-earth)        
    AU:     Astronomical Unit (mean distance between earth and sun: 149597870.7 km
    

Orbital elements provided by the MPC (Minor Planet Center).
Calculations by a modified version of AAPlus, a C# implementation of the AA+ project by PJ Naughter from the algorithms presented in the book "Astronomical Algorithms" by Jean Meeus.
NGC2000 dso catalog and star labels from VizieR as provided by the Strasbourg astronomical Data Center.
Tycho2 catalog from the ESO archive.